{"data":{"norad_id":68170,"epoch":"2026-05-24T15:15:07.689024Z","epoch_age_seconds":99703,"freshness":"FRESH","line1":"1 68170U 26050D   26144.63550566  .00027410  00000+0  71067-3 0  9995","line2":"2 68170  53.1584 273.7969 0001170  64.6499 295.4627 15.38837634 12310","mean_motion":15.38837634,"eccentricity":0.000117,"inclination_deg":53.1584,"raan_deg":273.7969,"arg_perigee_deg":64.6499,"mean_anomaly_deg":295.4627,"bstar":0.00071067,"rev_number":1231,"period_min":93.57712393977,"perigee_km":448.74652439554,"apogee_km":450.34420206854,"semimajor_km":6827.682363232,"source":"CELESTRAK","updated_at":"2026-05-25T13:38:21.852818Z"}}